Regional Weather Roundup
Issued by NWS Little Rock, AR

Home | Current Version | Previous Version | Text Only | Print | Product List | Glossary On
Versions: 1 2 3 4 5 6 7 8 9 10 11 12 13 14 15 16 17 18 19 20 21 22 23 24 25 26 27 28 29 30 31 32 33 34 35 36 37 38 39 40 41 42 43 44 45 46 47 48 49 50
000
ASUS44 KLZK 142305
RWRLZK

WEATHER ROUNDUP FOR ARKANSAS
NATIONAL WEATHER SERVICE LITTLE ROCK AR
500 PM CST SUN FEB 14 2016

NOTE: "FAIR" INDICATES FEW OR NO CLOUDS BELOW 12,000 FEET WITH NO
SIGNIFICANT WEATHER AND/OR OBSTRUCTIONS TO VISIBILITY.

ARZ001-003-010-029-150000-
NORTHWEST ARKANSAS

CITY           SKY/WX    TMP DP  RH WIND       PRES   REMARKS
FAYETTEVILLE   CLOUDY    43  42  97 CALM      29.91S
FORT SMITH     CLOUDY    39  29  67 E6        29.95S
HARRISON       CLOUDY    36  31  82 SE7       29.92S
BENTONVILLE    CLOUDY    43  37  81 S3        29.91S
ROGERS         CLOUDY    42  40  92 S6        29.91R FOG
SILOAM SPGS    SUNNY     45  34  65 S5        29.90F
HIGHFILL       CLOUDY    43  42  97 S6        29.90S FOG
SPRINGDALE     CLOUDY    43  41  93 CALM      29.92S FOG
$$

ARZ004-005-016-150000-
NORTH CENTRAL ARKANSAS

CITY           SKY/WX    TMP DP  RH WIND       PRES   REMARKS
BATESVILLE     CLOUDY    32  30  93 CALM      30.00R
FLIPPIN        CLOUDY    34  23  64 CALM      29.94S
MTN HOME       CLOUDY    32  27  81 E3        29.93S
$$

ARZ040-041-150000-
WEST CENTRAL ARKANSAS

CITY           SKY/WX    TMP DP  RH WIND       PRES   REMARKS
MENA           CLOUDY    46  43  87 CALM      29.92R
MOUNT IDA      CLOUDY    44  39  82 CALM      29.90S
$$

ARZ009-017-025-026-028-150000-
NORTHEAST ARKANSAS

CITY           SKY/WX    TMP DP  RH WIND       PRES   REMARKS
JONESBORO      MIX PCPN  30  30 100 NE8       30.00S FOG     WCI  22
NEWPORT        LGT SNOW  31  30  96 NE12      30.01S FOG     WCI  22
WALNUT RIDGE   CLOUDY    30  27  86 CALM      30.01S
BLYTHEVILLE    LGT RAIN  33  30  88 NE15      30.01S WCI  23
$$

ARZ022-023-033-042-044-150000-
CENTRAL ARKANSAS

CITY           SKY/WX    TMP DP  RH WIND       PRES   REMARKS
LITTLE ROCK    LGT RAIN  48  41  76 NE9       29.95S
N LITTLE ROCK  CLOUDY    43  38  83 NE5       29.95S
JACKSONVILLE   LGT RAIN  43  36  75 NE5       29.95S
SEARCY         CLOUDY    36  36 100 N6        29.99S
HOT SPRINGS    CLOUDY    47  40  76 CALM      29.93S
RUSSELLVILLE   CLOUDY    37  29  72 NE5       29.96S
CLINTON        CLOUDY    36  32  87 CALM      29.97F FOG
$$

ARZ036-150000-
EAST ARKANSAS

CITY           SKY/WX    TMP DP  RH WIND       PRES   REMARKS
WEST MEMPHIS   CLOUDY    50  33  52 CALM      29.96S
$$

ARZ050-053-066-070-073-150000-
SOUTHWEST ARKANSAS

CITY           SKY/WX    TMP DP  RH WIND       PRES   REMARKS
ARKADELPHIA    CLOUDY    51  50  97 N3        29.93S
CAMDEN         CLOUDY    63  48  59 S5        29.92S
TEXARKANA      CLOUDY    59  52  77 S3        29.90F
EL DORADO      CLOUDY    63  51  65 S5        29.93S
DE QUEEN       CLOUDY    51  40  65 NE6       29.90S
$$

ARZ056-057-069-150000-
SOUTHEAST ARKANSAS

CITY           SKY/WX    TMP DP  RH WIND       PRES   REMARKS
PINE BLUFF     LGT RAIN  59  46  62 S8        29.93S
STUTTGART      CLOUDY    54  45  71 NW6       29.95S
MONTICELLO     CLOUDY    62  45  53 S7        29.95F

$$





USA.gov is the U.S. government's official web portal to all federal, state and local government web resources and services.